Year,Month,Day,Hour,Minute,Value (Times are PST for temperature in C)
2013,12,09,00,00,-6.80
2013,12,09,00,01,-6.80
2013,12,09,00,02,-6.70
2013,12,09,00,03,-6.70
2013,12,09,00,04,-6.70
2013,12,09,00,05,-6.70
2013,12,09,00,06,-6.70
2013,12,09,00,07,-6.60
2013,12,09,00,08,-6.60
2013,12,09,00,09,-6.60
2013,12,09,00,10,-6.60
2013,12,09,00,11,-6.50
2013,12,09,00,12,-6.50
2013,12,09,00,13,-6.40
2013,12,09,00,14,-6.40
2013,12,09,00,15,-6.40
2013,12,09,00,16,-6.40
2013,12,09,00,17,-6.40
2013,12,09,00,18,-6.40
2013,12,09,00,19,-6.40
2013,12,09,00,20,-6.40
2013,12,09,00,21,-6.40
2013,12,09,00,22,-6.40
2013,12,09,00,23,-6.40
2013,12,09,00,24,-6.40
2013,12,09,00,25,-6.40
2013,12,09,00,26,-6.40
2013,12,09,00,27,-6.30
2013,12,09,00,28,-6.30
2013,12,09,00,29,-6.30
2013,12,09,00,30,-6.30
2013,12,09,00,31,-6.30
2013,12,09,00,32,-6.30
2013,12,09,00,33,-6.30
2013,12,09,00,34,-6.20
2013,12,09,00,35,-6.20
2013,12,09,00,36,-6.20
2013,12,09,00,37,-6.20
2013,12,09,00,38,-6.20
2013,12,09,00,39,-6.20
2013,12,09,00,40,-6.10
2013,12,09,00,41,-6.10
2013,12,09,00,42,-6.10
2013,12,09,00,43,-6.10
2013,12,09,00,44,-6.10
2013,12,09,00,45,-6.10
2013,12,09,00,46,-6.00
2013,12,09,00,47,-6.00
2013,12,09,00,48,-6.00
2013,12,09,00,49,-5.90
2013,12,09,00,50,-5.90
2013,12,09,00,51,-5.90
2013,12,09,00,52,-5.90
2013,12,09,00,53,-5.90
2013,12,09,00,54,-5.90
2013,12,09,00,55,-5.90
2013,12,09,00,56,-5.80
2013,12,09,00,57,-5.80
2013,12,09,00,58,-5.80
2013,12,09,00,59,-5.80
2013,12,09,01,00,-5.80
2013,12,09,01,01,-5.90
2013,12,09,01,02,-5.90
2013,12,09,01,03,-5.90
2013,12,09,01,04,-5.90
2013,12,09,01,05,-5.90
2013,12,09,01,06,-5.90
2013,12,09,01,07,-5.90
2013,12,09,01,08,-5.90
2013,12,09,01,09,-5.90
2013,12,09,01,10,-5.90
2013,12,09,01,11,-5.90
2013,12,09,01,12,-5.90
2013,12,09,01,13,-5.90
2013,12,09,01,14,-5.90
2013,12,09,01,15,-5.90
2013,12,09,01,16,-5.90
2013,12,09,01,17,-5.90
2013,12,09,01,18,-5.80
2013,12,09,01,19,-5.80
2013,12,09,01,20,-5.80
2013,12,09,01,21,-5.80
2013,12,09,01,22,-5.80
2013,12,09,01,23,-5.80
2013,12,09,01,24,-5.80
2013,12,09,01,25,-5.80
2013,12,09,01,26,-5.80
2013,12,09,01,27,-5.80
2013,12,09,01,28,-5.80
2013,12,09,01,29,-5.80
2013,12,09,01,30,-5.70
2013,12,09,01,31,-5.70
2013,12,09,01,32,-5.70
2013,12,09,01,33,-5.70
2013,12,09,01,34,-5.70
2013,12,09,01,35,-5.70
2013,12,09,01,36,-5.60
2013,12,09,01,37,-5.60
2013,12,09,01,38,-5.60
2013,12,09,01,39,-5.60
2013,12,09,01,40,-5.60
2013,12,09,01,41,-5.60
2013,12,09,01,42,-5.60
2013,12,09,01,43,-5.60
2013,12,09,01,44,-5.60
2013,12,09,01,45,-5.60
2013,12,09,01,46,-5.60
2013,12,09,01,47,-5.60
2013,12,09,01,48,-5.60
2013,12,09,01,49,-5.50
2013,12,09,01,50,-5.60
2013,12,09,01,51,-5.50
2013,12,09,01,52,-5.50
2013,12,09,01,53,-5.50
2013,12,09,01,54,-5.50
2013,12,09,01,55,-5.50
2013,12,09,01,56,-5.50
2013,12,09,01,57,-5.50
2013,12,09,01,58,-5.40
2013,12,09,01,59,-5.40
2013,12,09,02,00,-5.40
2013,12,09,02,01,-5.40
2013,12,09,02,02,-5.40
2013,12,09,02,03,-5.30
2013,12,09,02,04,-5.30
2013,12,09,02,05,-5.30
2013,12,09,02,06,-5.30
2013,12,09,02,07,-5.30
2013,12,09,02,08,-5.30
2013,12,09,02,09,-5.30
2013,12,09,02,10,-5.30
2013,12,09,02,11,-5.30
2013,12,09,02,12,-5.30
2013,12,09,02,13,-5.30
2013,12,09,02,14,-5.20
2013,12,09,02,15,-5.20
2013,12,09,02,16,-5.20
2013,12,09,02,17,-5.20
2013,12,09,02,18,-5.20
2013,12,09,02,19,-5.20
2013,12,09,02,20,-5.20
2013,12,09,02,21,-5.20
2013,12,09,02,22,-5.20
2013,12,09,02,23,-5.20
2013,12,09,02,24,-5.20
2013,12,09,02,25,-5.20
2013,12,09,02,26,-5.20
2013,12,09,02,27,-5.10
2013,12,09,02,28,-5.10
2013,12,09,02,29,-5.10
2013,12,09,02,30,-5.10
2013,12,09,02,31,-5.10
2013,12,09,02,32,-5.10
2013,12,09,02,33,-5.10
2013,12,09,02,34,-5.10
2013,12,09,02,35,-5.10
2013,12,09,02,36,-5.10
2013,12,09,02,37,-5.00
2013,12,09,02,38,-5.00
2013,12,09,02,39,-5.00
2013,12,09,02,40,-4.90
2013,12,09,02,41,-4.90
2013,12,09,02,42,-4.90
2013,12,09,02,43,-4.90
2013,12,09,02,44,-4.90
2013,12,09,02,45,-4.90
2013,12,09,02,46,-4.90
2013,12,09,02,47,-4.90
2013,12,09,02,48,-4.90
2013,12,09,02,49,-4.90
2013,12,09,02,50,-4.90
2013,12,09,02,51,-4.90
2013,12,09,02,52,-4.90
2013,12,09,02,53,-4.80
2013,12,09,02,54,-4.80
2013,12,09,02,55,-4.80
2013,12,09,02,56,-4.80
2013,12,09,02,57,-4.80
2013,12,09,02,58,-4.70
2013,12,09,02,59,-4.70
2013,12,09,03,00,-4.70
2013,12,09,03,01,-4.70
2013,12,09,03,02,-4.70
2013,12,09,03,03,-4.70
2013,12,09,03,04,-4.70
2013,12,09,03,05,-4.70
2013,12,09,03,06,-4.70
2013,12,09,03,07,-4.70
2013,12,09,03,08,-4.70
2013,12,09,03,09,-4.60
2013,12,09,03,10,-4.60
2013,12,09,03,11,-4.60
2013,12,09,03,12,-4.60
2013,12,09,03,13,-4.60
2013,12,09,03,14,-4.60
2013,12,09,03,15,-4.60
2013,12,09,03,16,-4.60
2013,12,09,03,17,-4.60
2013,12,09,03,18,-4.60
2013,12,09,03,19,-4.60
2013,12,09,03,20,-4.60
2013,12,09,03,21,-4.60
2013,12,09,03,22,-4.60
2013,12,09,03,23,-4.60
2013,12,09,03,24,-4.60
2013,12,09,03,25,-4.60
2013,12,09,03,26,-4.60
2013,12,09,03,27,-4.60
2013,12,09,03,28,-4.60
2013,12,09,03,29,-4.60
2013,12,09,03,30,-4.60
2013,12,09,03,31,-4.60
2013,12,09,03,32,-4.50
2013,12,09,03,33,-4.50
2013,12,09,03,34,-4.50
2013,12,09,03,35,-4.50
2013,12,09,03,36,-4.40
2013,12,09,03,37,-4.40
2013,12,09,03,38,-4.40
2013,12,09,03,39,-4.40
2013,12,09,03,40,-4.40
2013,12,09,03,41,-4.40
2013,12,09,03,42,-4.40
2013,12,09,03,43,-4.40
2013,12,09,03,44,-4.40
2013,12,09,03,45,-4.40
2013,12,09,03,46,-4.40
2013,12,09,03,47,-4.40
2013,12,09,03,48,-4.40
2013,12,09,03,49,-4.40
2013,12,09,03,50,-4.40
2013,12,09,03,51,-4.40
2013,12,09,03,52,-4.40
2013,12,09,03,53,-4.40
2013,12,09,03,54,-4.40
2013,12,09,03,55,-4.40
2013,12,09,03,56,-4.40
2013,12,09,03,57,-4.40
2013,12,09,03,58,-4.40
2013,12,09,03,59,-4.40
2013,12,09,04,00,-4.40
2013,12,09,04,01,-4.40
2013,12,09,04,02,-4.40
2013,12,09,04,03,-4.40
2013,12,09,04,04,-4.40
2013,12,09,04,05,-4.40
2013,12,09,04,06,-4.40
2013,12,09,04,07,-4.40
2013,12,09,04,08,-4.40
2013,12,09,04,09,-4.40
2013,12,09,04,10,-4.40
2013,12,09,04,11,-4.50
2013,12,09,04,12,-4.50
2013,12,09,04,13,-4.50
2013,12,09,04,14,-4.40
2013,12,09,04,15,-4.40
2013,12,09,04,16,-4.40
2013,12,09,04,17,-4.40
2013,12,09,04,18,-4.40
2013,12,09,04,19,-4.40
2013,12,09,04,20,-4.40
2013,12,09,04,21,-4.40
2013,12,09,04,22,-4.40
2013,12,09,04,23,-4.40
2013,12,09,04,24,-4.40
2013,12,09,04,25,-4.40
2013,12,09,04,26,-4.40
2013,12,09,04,27,-4.40
2013,12,09,04,28,-4.40
2013,12,09,04,29,-4.40
2013,12,09,04,30,-4.40
2013,12,09,04,31,-4.40
2013,12,09,04,32,-4.40
2013,12,09,04,33,-4.40
2013,12,09,04,34,-4.40
2013,12,09,04,35,-4.30
2013,12,09,04,36,-4.40
2013,12,09,04,37,-4.30
2013,12,09,04,38,-4.30
2013,12,09,04,39,-4.30
2013,12,09,04,40,-4.30
2013,12,09,04,41,-4.30
2013,12,09,04,42,-4.30
2013,12,09,04,43,-4.30
2013,12,09,04,44,-4.30
2013,12,09,04,45,-4.30
2013,12,09,04,46,-4.30
2013,12,09,04,47,-4.30
2013,12,09,04,48,-4.30
2013,12,09,04,49,-4.30
2013,12,09,04,50,-4.30
2013,12,09,04,51,-4.30
2013,12,09,04,52,-4.30
2013,12,09,04,53,-4.30
2013,12,09,04,54,-4.30
2013,12,09,04,55,-4.30
2013,12,09,04,56,-4.20
2013,12,09,04,57,-4.20
2013,12,09,04,58,-4.20
2013,12,09,04,59,-4.20
2013,12,09,05,00,-4.20
2013,12,09,05,01,-4.20
2013,12,09,05,02,-4.20
2013,12,09,05,03,-4.20
2013,12,09,05,04,-4.20
2013,12,09,05,05,-4.20
2013,12,09,05,06,-4.20
2013,12,09,05,07,-4.20
2013,12,09,05,08,-4.20
2013,12,09,05,09,-4.20
2013,12,09,05,10,-4.20
2013,12,09,05,11,-4.20
2013,12,09,05,12,-4.20
2013,12,09,05,13,-4.20
2013,12,09,05,14,-4.20
2013,12,09,05,15,-4.20
2013,12,09,05,16,-4.20
2013,12,09,05,17,-4.20
2013,12,09,05,18,-4.20
2013,12,09,05,19,-4.20
2013,12,09,05,20,-4.20
2013,12,09,05,21,-4.20
2013,12,09,05,22,-4.20
2013,12,09,05,23,-4.20
2013,12,09,05,24,-4.20
2013,12,09,05,25,-4.20
2013,12,09,05,26,-4.20
2013,12,09,05,27,-4.20
2013,12,09,05,28,-4.20
2013,12,09,05,29,-4.10
2013,12,09,05,30,-4.10
2013,12,09,05,31,-4.10
2013,12,09,05,32,-4.10
2013,12,09,05,33,-4.10
2013,12,09,05,34,-4.10
2013,12,09,05,35,-4.10
2013,12,09,05,36,-4.10
2013,12,09,05,37,-4.10
2013,12,09,05,38,-4.10
2013,12,09,05,39,-4.10
2013,12,09,05,40,-4.10
2013,12,09,05,41,-4.10
2013,12,09,05,42,-4.10
2013,12,09,05,43,-4.10
2013,12,09,05,44,-4.10
2013,12,09,05,45,-4.10
2013,12,09,05,46,-4.00
2013,12,09,05,47,-4.00
2013,12,09,05,48,-4.00
2013,12,09,05,49,-4.00
2013,12,09,05,50,-4.00
2013,12,09,05,51,-4.00
2013,12,09,05,52,-4.00
2013,12,09,05,53,-4.00
2013,12,09,05,54,-4.00
2013,12,09,05,55,-4.00
2013,12,09,05,56,-3.90
2013,12,09,05,57,-3.90
2013,12,09,05,58,-3.90
2013,12,09,05,59,-3.90
2013,12,09,06,00,-3.90
2013,12,09,06,01,-3.90
2013,12,09,06,02,-3.90
2013,12,09,06,03,-3.90
2013,12,09,06,04,-3.90
2013,12,09,06,05,-3.90
2013,12,09,06,06,-3.90
2013,12,09,06,07,-3.80
2013,12,09,06,08,-3.80
2013,12,09,06,09,-3.80
2013,12,09,06,10,-3.80
2013,12,09,06,11,-3.80
2013,12,09,06,12,-3.80
2013,12,09,06,13,-3.80
2013,12,09,06,14,-3.80
2013,12,09,06,15,-3.90
2013,12,09,06,16,-3.90
2013,12,09,06,17,-3.90
2013,12,09,06,18,-3.90
2013,12,09,06,19,-3.90
2013,12,09,06,20,-3.90
2013,12,09,06,21,-3.90
2013,12,09,06,22,-3.90
2013,12,09,06,23,-3.90
2013,12,09,06,24,-3.90
2013,12,09,06,25,-3.90
2013,12,09,06,26,-3.90
2013,12,09,06,27,-3.90
2013,12,09,06,28,-3.90
2013,12,09,06,29,-3.80
2013,12,09,06,30,-3.80
2013,12,09,06,31,-3.80
2013,12,09,06,32,-3.80
2013,12,09,06,33,-3.80
2013,12,09,06,34,-3.80
2013,12,09,06,35,-3.80
2013,12,09,06,36,-3.80
2013,12,09,06,37,-3.80
2013,12,09,06,38,-3.80
2013,12,09,06,39,-3.80
2013,12,09,06,40,-3.80
2013,12,09,06,41,-3.80
2013,12,09,06,42,-3.80
2013,12,09,06,43,-3.80
2013,12,09,06,44,-3.80
2013,12,09,06,45,-3.80
2013,12,09,06,46,-3.80
2013,12,09,06,47,-3.80
2013,12,09,06,48,-3.80
2013,12,09,06,49,-3.80
2013,12,09,06,50,-3.80
2013,12,09,06,51,-3.80
2013,12,09,06,52,-3.80
2013,12,09,06,53,-3.80
2013,12,09,06,54,-3.80
2013,12,09,06,55,-3.70
2013,12,09,06,56,-3.80
2013,12,09,06,57,-3.70
2013,12,09,06,58,-3.70
2013,12,09,06,59,-3.70
2013,12,09,07,00,-3.80
2013,12,09,07,01,-3.80
2013,12,09,07,02,-3.80
2013,12,09,07,03,-3.70
2013,12,09,07,04,-3.70
2013,12,09,07,05,-3.70
2013,12,09,07,06,-3.70
2013,12,09,07,07,-3.70
2013,12,09,07,08,-3.70
2013,12,09,07,09,-3.70
2013,12,09,07,10,-3.70
2013,12,09,07,11,-3.70
2013,12,09,07,12,-3.70
2013,12,09,07,13,-3.70
2013,12,09,07,14,-3.70
2013,12,09,07,15,-3.70
2013,12,09,07,16,-3.70
2013,12,09,07,17,-3.70
2013,12,09,07,18,-3.70
2013,12,09,07,19,-3.70
2013,12,09,07,20,-3.70
2013,12,09,07,21,-3.70
2013,12,09,07,22,-3.70
2013,12,09,07,23,-3.70
2013,12,09,07,24,-3.70
2013,12,09,07,25,-3.70
2013,12,09,07,26,-3.70
2013,12,09,07,27,-3.70
2013,12,09,07,28,-3.70
2013,12,09,07,29,-3.70
2013,12,09,07,30,-3.60
2013,12,09,07,31,-3.60
2013,12,09,07,32,-3.60
2013,12,09,07,33,-3.60
2013,12,09,07,34,-3.60
2013,12,09,07,35,-3.60
2013,12,09,07,36,-3.60
2013,12,09,07,37,-3.60
2013,12,09,07,38,-3.60
2013,12,09,07,39,-3.60
2013,12,09,07,40,-3.60
2013,12,09,07,41,-3.60
2013,12,09,07,42,-3.60
2013,12,09,07,43,-3.60
2013,12,09,07,44,-3.60
2013,12,09,07,45,-3.60
2013,12,09,07,46,-3.60
2013,12,09,07,47,-3.60
2013,12,09,07,48,-3.60
2013,12,09,07,49,-3.60
2013,12,09,07,50,-3.60
2013,12,09,07,51,-3.60
2013,12,09,07,52,-3.60
2013,12,09,07,53,-3.50
2013,12,09,07,54,-3.60
2013,12,09,07,55,-3.60
2013,12,09,07,56,-3.60
2013,12,09,07,57,-3.50
2013,12,09,07,58,-3.50
2013,12,09,07,59,-3.50
2013,12,09,08,00,-3.50
2013,12,09,08,01,-3.50
2013,12,09,08,02,-3.50
2013,12,09,08,03,-3.50
2013,12,09,08,04,-3.50
2013,12,09,08,05,-3.50
2013,12,09,08,06,-3.50
2013,12,09,08,07,-3.50
2013,12,09,08,08,-3.50
2013,12,09,08,09,-3.50
2013,12,09,08,10,-3.50
2013,12,09,08,11,-3.50
2013,12,09,08,12,-3.50
2013,12,09,08,13,-3.50
2013,12,09,08,14,-3.40
2013,12,09,08,15,-3.40
2013,12,09,08,16,-3.40
2013,12,09,08,17,-3.40
2013,12,09,08,18,-3.40
2013,12,09,08,19,-3.40
2013,12,09,08,20,-3.40
2013,12,09,08,21,-3.40
2013,12,09,08,22,-3.40
2013,12,09,08,23,-3.40
2013,12,09,08,24,-3.40
2013,12,09,08,25,-3.40
2013,12,09,08,26,-3.40
2013,12,09,08,27,-3.40
2013,12,09,08,28,-3.40
2013,12,09,08,29,-3.40
2013,12,09,08,30,-3.40
2013,12,09,08,31,-3.40
2013,12,09,08,32,-3.40
2013,12,09,08,33,-3.40
2013,12,09,08,34,-3.40
2013,12,09,08,35,-3.40
2013,12,09,08,36,-3.30
2013,12,09,08,37,-3.30
2013,12,09,08,38,-3.40
2013,12,09,08,39,-3.30
2013,12,09,08,40,-3.30
2013,12,09,08,41,-3.30
2013,12,09,08,42,-3.30
2013,12,09,08,43,-3.30
2013,12,09,08,44,-3.30
2013,12,09,08,45,-3.30
2013,12,09,08,46,-3.30
2013,12,09,08,47,-3.30
2013,12,09,08,48,-3.30
2013,12,09,08,49,-3.30
2013,12,09,08,50,-3.30
2013,12,09,08,51,-3.30
2013,12,09,08,52,-3.30
2013,12,09,08,53,-3.30
2013,12,09,08,54,-3.30
2013,12,09,08,55,-3.20
2013,12,09,08,56,-3.20
2013,12,09,08,57,-3.20
2013,12,09,08,58,-3.20
2013,12,09,08,59,-3.20
2013,12,09,09,00,-3.20
2013,12,09,09,01,-3.20
2013,12,09,09,02,-3.20
2013,12,09,09,03,-3.20
2013,12,09,09,04,-3.20
2013,12,09,09,05,-3.20
2013,12,09,09,06,-3.20
2013,12,09,09,07,-3.20
2013,12,09,09,08,-3.20
2013,12,09,09,09,-3.10
2013,12,09,09,10,-3.10
2013,12,09,09,11,-3.10
2013,12,09,09,12,-3.10
2013,12,09,09,13,-3.10
2013,12,09,09,14,-3.10
2013,12,09,09,15,-3.10
2013,12,09,09,16,-3.10
2013,12,09,09,17,-3.10
2013,12,09,09,18,-3.10
2013,12,09,09,19,-3.10
2013,12,09,09,20,-3.10
2013,12,09,09,21,-3.10
2013,12,09,09,22,-3.10
2013,12,09,09,23,-3.10
2013,12,09,09,24,-3.10
2013,12,09,09,25,-3.10
2013,12,09,09,26,-3.10
2013,12,09,09,27,-3.00
2013,12,09,09,28,-3.00
2013,12,09,09,29,-3.00
2013,12,09,09,30,-3.00
2013,12,09,09,31,-3.00
2013,12,09,09,32,-3.00
2013,12,09,09,33,-3.00
2013,12,09,09,34,-2.90
2013,12,09,09,35,-2.90
2013,12,09,09,36,-2.90
2013,12,09,09,37,-2.90
2013,12,09,09,38,-2.90
2013,12,09,09,39,-2.90
2013,12,09,09,40,-2.90
2013,12,09,09,41,-2.90
2013,12,09,09,42,-2.90
2013,12,09,09,43,-2.90
2013,12,09,09,44,-2.90
2013,12,09,09,45,-2.90
2013,12,09,09,46,-2.90
2013,12,09,09,47,-2.90
2013,12,09,09,48,-2.80
2013,12,09,09,49,-2.80
2013,12,09,09,50,-2.80
2013,12,09,09,51,-2.80
2013,12,09,09,52,-2.80
2013,12,09,09,53,-2.80
2013,12,09,09,54,-2.80
2013,12,09,09,55,-2.80
2013,12,09,09,56,-2.80
2013,12,09,09,57,-2.80
2013,12,09,09,58,-2.80
2013,12,09,09,59,-2.80
2013,12,09,10,00,-2.80
2013,12,09,10,01,-2.80
2013,12,09,10,02,-2.80
2013,12,09,10,03,-2.80
2013,12,09,10,04,-2.70
2013,12,09,10,05,-2.70
2013,12,09,10,06,-2.70
2013,12,09,10,07,-2.70
2013,12,09,10,08,-2.70
2013,12,09,10,09,-2.70
2013,12,09,10,10,-2.70
2013,12,09,10,11,-2.70
2013,12,09,10,12,-2.70
2013,12,09,10,13,-2.70
2013,12,09,10,14,-2.60
2013,12,09,10,15,-2.60
2013,12,09,10,16,-2.60
2013,12,09,10,17,-2.60
2013,12,09,10,18,-2.60
2013,12,09,10,19,-2.50
2013,12,09,10,20,-2.50
2013,12,09,10,21,-2.50
2013,12,09,10,22,-2.50
2013,12,09,10,23,-2.40
2013,12,09,10,24,-2.40
2013,12,09,10,25,-2.40
2013,12,09,10,26,-2.40
2013,12,09,10,27,-2.40
2013,12,09,10,28,-2.30
2013,12,09,10,29,-2.30
2013,12,09,10,30,-2.30
2013,12,09,10,31,-2.30
2013,12,09,10,32,-2.30
2013,12,09,10,33,-2.20
2013,12,09,10,34,-2.20
2013,12,09,10,35,-2.20
2013,12,09,10,36,-2.20
2013,12,09,10,37,-2.10
2013,12,09,10,38,-2.10
2013,12,09,10,39,-2.00
2013,12,09,10,40,-2.00
2013,12,09,10,41,-1.90
2013,12,09,10,42,-1.90
2013,12,09,10,43,-1.90
2013,12,09,10,44,-1.90
2013,12,09,10,45,-1.80
2013,12,09,10,46,-1.80
2013,12,09,10,47,-1.80
2013,12,09,10,48,-1.80
2013,12,09,10,49,-1.70
2013,12,09,10,50,-1.70
2013,12,09,10,51,-1.70
2013,12,09,10,52,-1.70
2013,12,09,10,53,-1.60
2013,12,09,10,54,-1.60
2013,12,09,10,55,-1.60
2013,12,09,10,56,-1.60
2013,12,09,10,57,-1.60
2013,12,09,10,58,-1.60
2013,12,09,10,59,-1.60
2013,12,09,11,00,-1.60
2013,12,09,11,01,-1.50
2013,12,09,11,02,-1.50
2013,12,09,11,03,-1.50
2013,12,09,11,04,-1.50
2013,12,09,11,05,-1.50
2013,12,09,11,06,-1.50
2013,12,09,11,07,-1.40
2013,12,09,11,08,-1.40
2013,12,09,11,09,-1.40
2013,12,09,11,10,-1.40
2013,12,09,11,11,-1.40
2013,12,09,11,12,-1.40
2013,12,09,11,13,-1.40
2013,12,09,11,14,-1.40
2013,12,09,11,15,-1.40
2013,12,09,11,16,-1.40
2013,12,09,11,17,-1.40
2013,12,09,11,18,-1.40
2013,12,09,11,19,-1.40
2013,12,09,11,20,-1.40
2013,12,09,11,21,-1.40
2013,12,09,11,22,-1.40
2013,12,09,11,23,-1.30
2013,12,09,11,24,-1.30
2013,12,09,11,25,-1.30
2013,12,09,11,26,-1.30
2013,12,09,11,27,-1.30
2013,12,09,11,28,-1.30
2013,12,09,11,29,-1.30
2013,12,09,11,30,-1.20
2013,12,09,11,31,-1.20
2013,12,09,11,32,-1.20
2013,12,09,11,33,-1.10
2013,12,09,11,34,-1.10
2013,12,09,11,35,-1.10
2013,12,09,11,36,-1.00
2013,12,09,11,37,-1.00
2013,12,09,11,38,-1.00
2013,12,09,11,39,-1.00
2013,12,09,11,40,-1.00
2013,12,09,11,41,-0.90
2013,12,09,11,42,-0.90
2013,12,09,11,43,-0.90
2013,12,09,11,44,-0.90
2013,12,09,11,45,-0.90
2013,12,09,11,46,-0.90
2013,12,09,11,47,-0.90
2013,12,09,11,48,-0.90
2013,12,09,11,49,-0.80
2013,12,09,11,50,-0.80
2013,12,09,11,51,-0.80
2013,12,09,11,52,-0.80
2013,12,09,11,53,-0.80
2013,12,09,11,54,-0.80
2013,12,09,11,55,-0.80
2013,12,09,11,56,-0.80
2013,12,09,11,57,-0.70
2013,12,09,11,58,-0.70
2013,12,09,11,59,-0.70
2013,12,09,12,00,-0.60
2013,12,09,12,01,-0.60
2013,12,09,12,02,-0.50
2013,12,09,12,03,-0.50
2013,12,09,12,04,-0.40
2013,12,09,12,05,-0.40
2013,12,09,12,06,-0.30
2013,12,09,12,07,-0.30
2013,12,09,12,08,-0.20
2013,12,09,12,09,-0.20
2013,12,09,12,10,-0.10
2013,12,09,12,11,-0.10
2013,12,09,12,12,-0.10
2013,12,09,12,13,0.00
2013,12,09,12,14,0.00
2013,12,09,12,15,0.00
2013,12,09,12,16,0.00
2013,12,09,12,17,0.00
2013,12,09,12,18,0.10
2013,12,09,12,19,0.10
2013,12,09,12,20,0.10
2013,12,09,12,21,0.10
2013,12,09,12,22,0.10
2013,12,09,12,23,0.20
2013,12,09,12,24,0.20
2013,12,09,12,25,0.20
2013,12,09,12,26,0.20
2013,12,09,12,27,0.20
2013,12,09,12,28,0.20
2013,12,09,12,29,0.20
2013,12,09,12,30,0.20
2013,12,09,12,31,0.10
2013,12,09,12,32,0.10
2013,12,09,12,33,0.10
2013,12,09,12,34,0.10
2013,12,09,12,35,0.10
2013,12,09,12,36,0.10
2013,12,09,12,37,0.10
2013,12,09,12,38,0.10
2013,12,09,12,39,0.10
2013,12,09,12,40,0.10
2013,12,09,12,41,0.10
2013,12,09,12,42,0.10
2013,12,09,12,43,0.10
2013,12,09,12,44,0.20
2013,12,09,12,45,0.20
2013,12,09,12,46,0.20
2013,12,09,12,47,0.20
2013,12,09,12,48,0.20
2013,12,09,12,49,0.20
2013,12,09,12,50,0.20
2013,12,09,12,51,0.30
2013,12,09,12,52,0.30
2013,12,09,12,53,0.30
2013,12,09,12,54,0.30
2013,12,09,12,55,0.30
2013,12,09,12,56,0.30
2013,12,09,12,57,0.40
2013,12,09,12,58,0.40
2013,12,09,12,59,0.40
2013,12,09,13,00,0.50
2013,12,09,13,01,0.50
2013,12,09,13,02,0.60
2013,12,09,13,03,0.60
2013,12,09,13,04,0.60
2013,12,09,13,05,0.70
2013,12,09,13,06,0.70
2013,12,09,13,07,0.80
2013,12,09,13,08,0.90
2013,12,09,13,09,1.00
2013,12,09,13,10,1.00
2013,12,09,13,11,1.10
2013,12,09,13,12,1.10
2013,12,09,13,13,1.10
2013,12,09,13,14,1.10
2013,12,09,13,15,1.10
2013,12,09,13,16,1.10
2013,12,09,13,17,1.00
2013,12,09,13,18,1.00
2013,12,09,13,19,1.00
2013,12,09,13,20,1.00
2013,12,09,13,21,1.00
2013,12,09,13,22,1.00
2013,12,09,13,23,1.00
2013,12,09,13,24,1.00
2013,12,09,13,25,1.00
2013,12,09,13,26,1.00
2013,12,09,13,27,1.10
2013,12,09,13,28,1.10
2013,12,09,13,29,1.10
2013,12,09,13,30,1.10
2013,12,09,13,31,1.10
2013,12,09,13,32,1.10
2013,12,09,13,33,1.10
2013,12,09,13,34,1.00
2013,12,09,13,35,1.00
2013,12,09,13,36,1.00
2013,12,09,13,37,1.00
2013,12,09,13,38,1.00
2013,12,09,13,39,0.90
2013,12,09,13,40,0.90
2013,12,09,13,41,1.00
2013,12,09,13,42,1.00
2013,12,09,13,43,1.00
2013,12,09,13,44,1.00
2013,12,09,13,45,1.00
2013,12,09,13,46,1.00
2013,12,09,13,47,1.00
2013,12,09,13,48,1.00
2013,12,09,13,49,1.00
2013,12,09,13,50,1.00
2013,12,09,13,51,1.00
2013,12,09,13,52,1.00
2013,12,09,13,53,1.00
2013,12,09,13,54,1.00
2013,12,09,13,55,1.00
2013,12,09,13,56,1.00
2013,12,09,13,57,1.00
2013,12,09,13,58,1.10
2013,12,09,13,59,1.10
2013,12,09,14,00,1.10
2013,12,09,14,01,1.10
2013,12,09,14,02,1.10
2013,12,09,14,03,1.10
2013,12,09,14,04,1.10
2013,12,09,14,05,1.10
2013,12,09,14,06,1.10
2013,12,09,14,07,1.10
2013,12,09,14,08,1.10
2013,12,09,14,09,1.10
2013,12,09,14,10,1.10
2013,12,09,14,11,1.10
2013,12,09,14,12,1.10
2013,12,09,14,13,1.10
2013,12,09,14,14,1.10
2013,12,09,14,15,1.10
2013,12,09,14,16,1.10
2013,12,09,14,17,1.20
2013,12,09,14,18,1.20
2013,12,09,14,19,1.20
2013,12,09,14,20,1.20
2013,12,09,14,21,1.20
2013,12,09,14,22,1.20
2013,12,09,14,23,1.20
2013,12,09,14,24,1.30
2013,12,09,14,25,1.30
2013,12,09,14,26,1.30
2013,12,09,14,27,1.30
2013,12,09,14,28,1.30
2013,12,09,14,29,1.30
2013,12,09,14,30,1.30
2013,12,09,14,31,1.30
2013,12,09,14,32,1.30
2013,12,09,14,33,1.30
2013,12,09,14,34,1.30
2013,12,09,14,35,1.30
2013,12,09,14,36,1.30
2013,12,09,14,37,1.20
2013,12,09,14,38,1.20
2013,12,09,14,39,1.20
2013,12,09,14,40,1.20
2013,12,09,14,41,1.20
2013,12,09,14,42,1.20
2013,12,09,14,43,1.20
2013,12,09,14,44,1.20
2013,12,09,14,45,1.10
2013,12,09,14,46,1.10
2013,12,09,14,47,1.10
2013,12,09,14,48,1.10
2013,12,09,14,49,1.10
2013,12,09,14,50,1.10
2013,12,09,14,51,1.10
2013,12,09,14,52,1.10
2013,12,09,14,53,1.10
2013,12,09,14,54,1.20
2013,12,09,14,55,1.20
2013,12,09,14,56,1.20
2013,12,09,14,57,1.20
2013,12,09,14,58,1.20
2013,12,09,14,59,1.20
2013,12,09,15,00,1.20
2013,12,09,15,01,1.20
2013,12,09,15,02,1.20
2013,12,09,15,03,1.30
2013,12,09,15,04,1.30
2013,12,09,15,05,1.30
2013,12,09,15,06,1.30
2013,12,09,15,07,1.30
2013,12,09,15,08,1.20
2013,12,09,15,09,1.20
2013,12,09,15,10,1.30
2013,12,09,15,11,1.30
2013,12,09,15,12,1.30
2013,12,09,15,13,1.30
2013,12,09,15,14,1.30
2013,12,09,15,15,1.30
2013,12,09,15,16,1.30
2013,12,09,15,17,1.30
2013,12,09,15,18,1.30
2013,12,09,15,19,1.30
2013,12,09,15,20,1.30
2013,12,09,15,21,1.40
2013,12,09,15,22,1.40
2013,12,09,15,23,1.40
2013,12,09,15,24,1.40
2013,12,09,15,25,1.40
2013,12,09,15,26,1.40
2013,12,09,15,27,1.40
2013,12,09,15,28,1.40
2013,12,09,15,29,1.40
2013,12,09,15,30,1.40
2013,12,09,15,31,1.40
2013,12,09,15,32,1.40
2013,12,09,15,33,1.40
2013,12,09,15,34,1.40
2013,12,09,15,35,1.40
2013,12,09,15,36,1.40
2013,12,09,15,37,1.40
2013,12,09,15,38,1.40
2013,12,09,15,39,1.40
2013,12,09,15,40,1.40
2013,12,09,15,41,1.30
2013,12,09,15,42,1.30
2013,12,09,15,43,1.30
2013,12,09,15,44,1.30
2013,12,09,15,45,1.30
2013,12,09,15,46,1.30
2013,12,09,15,47,1.30
2013,12,09,15,48,1.30
2013,12,09,15,49,1.30
2013,12,09,15,50,1.20
2013,12,09,15,51,1.20
2013,12,09,15,52,1.20
2013,12,09,15,53,1.20
2013,12,09,15,54,1.20
2013,12,09,15,55,1.20
2013,12,09,15,56,1.20
2013,12,09,15,57,1.20
2013,12,09,15,58,1.20
2013,12,09,15,59,1.10
2013,12,09,16,00,1.10
2013,12,09,16,01,1.10
2013,12,09,16,02,1.10
2013,12,09,16,03,1.10
2013,12,09,16,04,1.10
2013,12,09,16,05,1.10
2013,12,09,16,06,1.10
2013,12,09,16,07,1.10
2013,12,09,16,08,1.10
2013,12,09,16,09,1.10
2013,12,09,16,10,1.00
2013,12,09,16,11,1.00
2013,12,09,16,12,1.00
2013,12,09,16,13,1.00
2013,12,09,16,14,1.00
2013,12,09,16,15,0.90
2013,12,09,16,16,0.90
2013,12,09,16,17,0.90
2013,12,09,16,18,0.80
2013,12,09,16,19,0.80
2013,12,09,16,20,0.80
2013,12,09,16,21,0.80
2013,12,09,16,22,0.80
2013,12,09,16,23,0.70
2013,12,09,16,24,0.70
2013,12,09,16,25,0.70
2013,12,09,16,26,0.70
2013,12,09,16,27,0.70
2013,12,09,16,28,0.70
2013,12,09,16,29,0.70
2013,12,09,16,30,0.60
2013,12,09,16,31,0.60
2013,12,09,16,32,0.60
2013,12,09,16,33,0.60
2013,12,09,16,34,0.50
2013,12,09,16,35,0.50
2013,12,09,16,36,0.50
2013,12,09,16,37,0.50
2013,12,09,16,38,0.40
2013,12,09,16,39,0.50
2013,12,09,16,40,0.40
2013,12,09,16,41,0.40
2013,12,09,16,42,0.40
2013,12,09,16,43,0.40
2013,12,09,16,44,0.40
2013,12,09,16,45,0.30
2013,12,09,16,46,0.30
2013,12,09,16,47,0.30
2013,12,09,16,48,0.20
2013,12,09,16,49,0.20
2013,12,09,16,50,0.20
2013,12,09,16,51,0.20
2013,12,09,16,52,0.10
2013,12,09,16,53,0.10
2013,12,09,16,54,0.10
2013,12,09,16,55,0.00
2013,12,09,16,56,0.00
2013,12,09,16,57,0.00
2013,12,09,16,58,0.00
2013,12,09,16,59,0.00
2013,12,09,17,00,-0.10
2013,12,09,17,01,-0.10
2013,12,09,17,02,-0.10
2013,12,09,17,03,-0.10
2013,12,09,17,04,-0.10
2013,12,09,17,05,-0.10
2013,12,09,17,06,-0.10
2013,12,09,17,07,-0.10
2013,12,09,17,08,-0.20
2013,12,09,17,09,-0.20
2013,12,09,17,10,-0.20
2013,12,09,17,11,-0.20
2013,12,09,17,12,-0.20
2013,12,09,17,13,-0.20
2013,12,09,17,14,-0.20
2013,12,09,17,15,-0.20
2013,12,09,17,16,-0.30
2013,12,09,17,17,-0.30
2013,12,09,17,18,-0.30
2013,12,09,17,19,-0.30
2013,12,09,17,20,-0.30
2013,12,09,17,21,-0.30
2013,12,09,17,22,-0.30
2013,12,09,17,23,-0.30
2013,12,09,17,24,-0.40
2013,12,09,17,25,-0.40
2013,12,09,17,26,-0.40
2013,12,09,17,27,-0.40
2013,12,09,17,28,-0.40
2013,12,09,17,29,-0.50
2013,12,09,17,30,-0.50
2013,12,09,17,31,-0.50